This demonstration page uses our WeatherBlox Daily Observations layout. Learn more.

Left ArrowRight Arrow

Hourly Observations for July 14, 2017

Temp ( °F °C ) Dew Point ( °F °C ) Humidity (%) Winds ( mph kmh ) Pressure ( in mb ) Visibility ( mi km ) Precip ( " mm )
12:53 am 00:53 Mostly Cloudy 76 24.4 64 17.8 67 67 SE 17 28 30.04 1017 10 16 0.00 0.00
1:53 am 01:53 Mostly Cloudy 75 23.9 64 17.8 69 69 SSE 10 17 30.04 1017 10 16 0.00 0.00
2:53 am 02:53 Cloudy 75 23.9 64 17.8 69 69 E 5 7 30.02 1017 10 16 0.00 0.00
3:53 am 03:53 Cloudy 75 23.9 64 17.8 69 69 SE 5 7 30.00 1016 10 16 0.00 0.00
4:31 am 04:31 Cloudy 75 23.9 64 17.8 69 69 ESE 5 7 30.00 1016 10 16 0.00 0.00
4:53 am 04:53 Cloudy 75 23.9 64 17.8 69 69 E 8 13 30.00 1016 10 16 0.00 0.00
5:09 am 05:09 Cloudy 74 23.3 65 18.3 74 74 ESE 10 17 30.03 1017 10 16 0.00 0.00
5:53 am 05:53 Cloudy 74 23.3 66 18.9 76 76 ESE 9 15 30.01 1016 10 16 0.00 0.00
6:33 am 06:33 Cloudy 73 22.8 67 19.4 81 81 E 10 17 30.03 1017 10 16 0.00 0.00
6:40 am 06:40 Cloudy 73 22.8 67 19.4 81 81 ESE 9 15 30.03 1017 9 14 0.00 0.00
6:53 am 06:53 Cloudy with Heavy Rain 72 22.2 69 20.6 91 91 ESE 10 17 30.02 1017 3 5 0.07 1.78
7:26 am 07:26 Partly Cloudy 72 22.2 68 20 87 87 SE 12 19 30.03 1017 10 16 0.00 0.03
7:53 am 07:53 Mostly Cloudy 72 22.2 68 20 87 87 SE 13 20 30.04 1017 10 16 0.00 0.03
8:04 am 08:04 Cloudy 72 22.2 68 20 87 87 SE 14 22 30.06 1018 10 16 0.00 0.00
8:53 am 08:53 Cloudy 72 22.2 68 20 87 87 SE 13 20 30.06 1018 10 16 0.00 0.00
9:21 am 09:21 Partly Cloudy 73 22.8 66 18.9 79 79 SSE 16 26 30.06 1018 10 16 0.00 0.00
9:53 am 09:53 Partly Cloudy 73 22.8 65 18.3 76 76 SE 16 26 30.08 1019 10 16 0.00 0.00
10:30 am 10:30 Mostly Cloudy 73 22.8 66 18.9 79 79 SE 15 24 30.06 1018 10 16 0.00 0.00
10:38 am 10:38 Partly Cloudy 73 22.8 65 18.3 76 76 SE 12 19 30.06 1018 10 16 0.00 0.00
10:53 am 10:53 Mostly Sunny 74 23.3 65 18.3 74 74 SE 12 19 30.10 1019 10 16 0.00 0.00
11:53 am 11:53 Mostly Cloudy 77 25 64 17.8 64 64 SSE 14 22 30.09 1019 10 16 0.00 0.00
12:53 pm 12:53 Partly Cloudy 81 27.2 61 16.1 51 51 SE 12 19 30.07 1018 10 16 0.00 0.03
1:53 pm 13:53 Partly Cloudy 81 27.2 61 16.1 51 51 E 10 17 30.06 1018 10 16 0.00 0.00
2:53 pm 14:53 Partly Cloudy 85 29.4 57 13.9 39 39 ESE 18 30 30.03 1017 10 16 0.00 0.00
3:53 pm 15:53 Mostly Cloudy 84 28.9 59 15 43 43 ESE 16 26 30.02 1017 10 16 0.00 0.00
4:53 pm 16:53 Mostly Cloudy 86 30 58 14.4 39 39 SE 16 26 30.00 1016 10 16 0.00 0.00
5:53 pm 17:53 Sunny 86 30 60 15.6 42 42 E 14 22 29.98 1015 10 16 0.00 0.00
6:53 pm 18:53 Mostly Sunny 86 30 61 16.1 43 43 SE 14 22 29.98 1015 10 16 0.00 0.00
7:53 pm 19:53 Sunny 84 28.9 58 14.4 41 41 SE 16 26 29.98 1015 10 16 0.00 0.00
8:53 pm 20:53 Sunny 82 27.8 59 15 46 46 SE 13 20 30.01 1016 10 16 0.00 0.00
9:53 pm 21:53 Clear 81 27.2 60 15.6 49 49 SE 8 13 30.03 1017 10 16 0.00 0.00
10:53 pm 22:53 Clear 79 26.1 61 16.1 54 54 ESE 5 7 30.05 1018 10 16 0.00 0.00
11:53 pm 23:53 Clear 77 25 61 16.1 58 58 SE 7 11 30.06 1018 10 16 0.00 0.00

Powered by AerisWeather